Penn Yan, NY

11:06 AM EDT on October 19, 2017 (GMT -0400)
Penn Yan

Weather History for KPEO - April, 2014

Change the Weather History Date:

Saturday, April 19, 2014

  Actual Average (KITH) Record (KITH)
Temperature  
Mean Temperature 42 °F -  
Max Temperature 52 °F 56 °F 85 °F (1941)
Min Temperature 30 °F 34 °F 15 °F (2001)
Degree Days  
Heating Degree Days 23    
Moisture  
Dew Point 31 °F    
Average Humidity 63    
Maximum Humidity 85    
Minimum Humidity 41    
Precipitation  
Precipitation 0.00 in - - ()
Sea Level Pressure  
Sea Level Pressure 30.37 in    
Wind  
Wind Speed 7 mph (NW)    
Max Wind Speed 13 mph    
Max Gust Speed 20 mph    
Visibility 10 miles    
Events      
Averages and records for this station are not official NWS values.
T = Trace of Precipitation, MM = Missing Value Source: NWS Daily Summary

Daily Weather History Graph

Daily Weather History Graph

Search for Another Location

Airport or City:

Trip Planner

Search our weather history database for the weather conditions in past years. The results will help you decide how hot, cold, wet, or windy it might be!

Date:

Astronomy

Apr. 19, 2014 Rise Set
Actual Time 6:20 AM EDT 7:54 PM EDT
Civil Twilight 5:50 AM EDT 8:24 PM EDT
Nautical Twilight 5:15 AM EDT 9:00 PM EDT
Astronomical Twilight 4:36 AM EDT 9:38 PM EDT
Moon No Moon Rise 9:33 AM EDT
Length of Visible Light 14h 33m
Length of Day
13h 34m
Waning Gibbous, 79% of the Moon is Illuminated
Apr 19
Waning Gibbous
Apr 22
Last Quarter
Apr 29
New
May 6
First Quarter
May 14
Full

Hourly Weather History & Observations

Time (EDT) Temp. Windchill Dew Point Humidity Pressure Visibility Wind Dir Wind Speed Gust Speed Precip Events Conditions
12:14 AM 46.9 °F - 39.0 °F 74% 30.26 in 10.0 mi West 6.9 mph - N/A   Overcast
12:53 AM 46.9 °F - 37.0 °F 68% 30.27 in 10.0 mi West 4.6 mph - N/A   Mostly Cloudy
1:53 AM 46.0 °F 43.9 °F 37.0 °F 71% 30.27 in 8.0 mi NW 4.6 mph - N/A   Overcast
2:02 AM 46.0 °F 42.5 °F 37.0 °F 71% 30.26 in 8.0 mi WNW 6.9 mph - N/A   Overcast
2:11 AM 46.0 °F 41.9 °F 37.0 °F 71% 30.26 in 8.0 mi WNW 8.1 mph - N/A   Mostly Cloudy
2:53 AM 44.1 °F 37.7 °F 35.1 °F 71% 30.27 in 9.0 mi NW 12.7 mph 19.6 mph N/A   Scattered Clouds
3:53 AM 42.1 °F 37.7 °F 35.1 °F 76% 30.28 in 8.0 mi WNW 6.9 mph 17.3 mph N/A   Scattered Clouds
4:53 AM 37.9 °F - 32.0 °F 79% 30.30 in 9.0 mi Calm Calm - N/A   Clear
5:53 AM 37.9 °F - 30.9 °F 76% 30.31 in 10.0 mi Calm Calm - N/A   Clear
6:53 AM 37.0 °F 31.6 °F 28.9 °F 73% 30.33 in 10.0 mi WNW 6.9 mph - N/A   Clear
7:53 AM 39.0 °F 32.3 °F 30.0 °F 70% 30.37 in 10.0 mi NW 10.4 mph - N/A   Clear
8:53 AM 41.0 °F 35.2 °F 30.9 °F 67% 30.38 in 10.0 mi NNW 9.2 mph - N/A   Partly Cloudy
9:38 AM 42.1 °F 36.1 °F 32.0 °F 67% 30.38 in 10.0 mi NNW 10.4 mph - N/A   Mostly Cloudy
9:53 AM 41.0 °F 35.2 °F 32.0 °F 70% 30.42 in 10.0 mi NNW 9.2 mph - N/A   Mostly Cloudy
10:53 AM 44.1 °F 39.0 °F 32.0 °F 63% 30.43 in 10.0 mi North 9.2 mph - N/A   Overcast
11:53 AM 43.0 °F 37.2 °F 32.0 °F 65% 30.44 in 10.0 mi NNW 10.4 mph - N/A   Mostly Cloudy
12:44 PM 46.9 °F - 34.0 °F 61% 30.42 in 10.0 mi NNW 9.2 mph 18.4 mph N/A   Scattered Clouds
12:53 PM 46.0 °F - 33.1 °F 61% 30.44 in 10.0 mi North - - N/A   Mostly Cloudy
1:46 PM 48.0 °F - 32.0 °F 54% 30.41 in 10.0 mi NNW 9.2 mph 17.3 mph N/A   Scattered Clouds
1:53 PM 48.9 °F - 32.0 °F 52% 30.42 in 10.0 mi NNE 9.2 mph 17.3 mph N/A   Scattered Clouds
2:53 PM 50.0 °F - 32.0 °F 50% 30.41 in 10.0 mi NNW 9.2 mph - N/A   Clear
3:53 PM 51.1 °F - 28.0 °F 41% 30.41 in 10.0 mi NNE 9.2 mph 17.3 mph N/A   Clear
4:53 PM 50.0 °F - 28.9 °F 44% 30.41 in 10.0 mi Variable 6.9 mph - N/A   Clear
5:53 PM 48.9 °F - 27.0 °F 43% 30.41 in 10.0 mi North 9.2 mph - N/A   Clear
6:53 PM 48.0 °F - 26.1 °F 42% 30.40 in 10.0 mi NNW 9.2 mph - N/A   Clear
7:53 PM 45.0 °F 42.6 °F 27.0 °F 49% 30.41 in 10.0 mi Variable 4.6 mph - N/A   Clear
8:53 PM 42.1 °F - 26.1 °F 53% 30.42 in 10.0 mi Calm Calm - N/A   Clear
9:53 PM 39.9 °F - 26.1 °F 58% 30.43 in 10.0 mi Calm Calm - N/A   Clear
10:53 PM 33.1 °F 30.0 °F 27.0 °F 78% 30.44 in 10.0 mi SE 3.5 mph - N/A   Clear
11:53 PM 30.0 °F - 26.1 °F 85% 30.44 in 10.0 mi Calm Calm - N/A   Clear